[[{"header":{"parameterUnit":"m.s-1","parameterCategory":1,"la1":30.2991,"la2":30.254,"lo1":-89.0895,"lo2":-89.0444,"dy":0.0017,"dx":0.0017,"nx":28,"ny":28,"refTime":"2025-07-11T21:00:00:Z","depth":0,"parameterNumber":2,"parameterNumberName":"U-component_of_WINDS"},"data":[0,0,0,0,0,0,0,0,0,0,0,0,0,0,0,0,0,0,0,0,0,0,0,0,0,0,0,0,0,0,0,0,0,0,0,0,0,0,0,0,0,0,0,0,0,0,0,0,0,0,0,0,0,0,0,0,0,0,1.2695,1.2697,0,1.2879,1.2881,1.2884,1.2957,1.2957,1.2956,1.2956,1.3145,1.3151,1.3156,0,0,0,0,0,0,0,0,0,0,0,0,0,1.2405,1.241,1.2695,1.2697,1.2699,1.2879,1.2882,1.2884,1.2957,1.2956,1.2956,1.2955,1.3143,1.315,1.3156,0,0,0,0,0,0,0,0,0,0,0,0,0,1.2554,1.2412,1.2694,1.2757,1.2765,1.2878,1.2882,1.2885,1.2957,1.2956,1.2956,1.2955,1.3141,1.3149,1.3157,1.3222,0,0,1.3183,1.3186,0,0,0,0,0,0,0,0,1.2546,1.2565,1.2746,1.2753,1.2762,1.2894,1.2849,1.2998,1.2957,1.2884,1.2956,1.2955,1.3062,1.3077,1.3113,1.3231,1.3239,1.3183,1.3188,1.3192,1.3194,0,0,0,0,0,0,0,1.2535,1.2557,1.2768,1.2748,1.2758,1.2776,1.2797,1.2878,1.2975,1.2891,1.2896,1.2917,1.3067,1.3105,1.3118,1.3242,1.3183,1.319,1.3195,1.3199,1.3421,1.3422,0,0,0,0,0,0,1.2515,1.2548,1.2762,1.2773,1.265,1.2782,1.2805,1.2853,1.2974,1.2992,1.2917,1.292,1.3091,1.3109,1.3125,1.3208,1.3192,1.3199,1.3204,1.342,1.3421,1.3422,0,0,0,0,0,0,1.2508,1.2533,1.2755,1.2663,1.2692,1.2788,1.2841,1.2857,1.2895,1.2995,1.3012,1.2939,1.3092,1.3114,1.3197,1.3216,1.3203,1.3211,1.3419,1.342,1.3421,1.3375,0,0,0,0,0,0,1.25,1.253,1.2556,1.2663,1.2697,1.2823,1.2842,1.2861,1.2909,1.2914,1.3019,1.3036,1.3093,1.3184,1.3205,1.3227,1.3217,1.3417,1.3419,1.3421,1.3375,1.3375,1.3374,0,0,0,0,0,1.2489,1.2536,1.2557,1.2582,1.2731,1.2824,1.2844,1.2908,1.291,1.2937,1.3,1.3033,1.321,1.3192,1.3216,1.3241,1.3417,1.3419,1.3421,1.3375,1.3375,1.3374,0,0,0,0,0,0,1.243,1.2551,1.2576,1.2659,1.273,1.2836,1.2872,1.2905,1.2978,1.2979,1.3055,1.3079,1.3155,1.3207,1.3185,1.3309,1.3316,1.3323,1.3273,1.3273,1.3273,1.3259,1.3224,0,0,0,0,0,1.2426,1.2492,1.2594,1.2658,1.2692,1.2775,1.2819,1.2861,1.2939,1.297,1.304,1.3114,1.3186,1.3233,1.3305,1.3383,1.3407,1.3411,1.3411,1.341,1.3415,1.3459,1.3462,1.3429,1.3429,1.3429,0,0,1.242,1.2494,1.2531,1.2648,1.2708,1.2774,1.2801,1.287,1.292,1.2981,1.3064,1.3117,1.3205,1.3285,1.3325,1.3331,1.3429,1.3413,1.3411,1.3417,1.3462,1.3465,1.3467,1.3431,1.343,1.343,0,0,1.2441,1.2505,1.2564,1.2624,1.2715,1.277,1.2784,1.2885,1.2923,1.3007,1.3054,1.3114,1.3237,1.3298,1.3344,1.3387,1.342,1.3409,1.3406,1.3448,1.345,1.3453,1.3468,1.3472,1.3414,1.3414,1.3413,0,1.2422,1.2524,1.259,1.2656,1.2706,1.2763,1.2823,1.2879,1.2989,1.3021,1.3026,1.3181,1.3245,1.334,1.335,1.3386,1.3404,1.3397,1.3445,1.3448,1.3452,1.3467,1.3472,1.3412,1.3412,1.3412,1.3412,0,1.2495,1.2564,1.2601,1.2705,1.2759,1.2822,1.2897,1.2943,1.2981,1.3035,1.3119,1.3197,1.3286,1.3311,1.3349,1.3411,1.3412,1.343,1.3438,1.3452,1.3467,1.3473,1.3409,1.3409,1.341,1.3411,0,0,1.2485,1.2624,1.2637,1.2684,1.2789,1.2844,1.2909,1.2995,1.3032,1.3106,1.3162,1.3264,1.3281,1.3334,1.3379,1.3416,1.3444,1.3429,1.3433,1.3429,1.3517,1.3502,1.3508,1.3466,1.3467,1.3468,1.3509,0,1.2521,1.2639,1.2701,1.2793,1.2858,1.2913,1.2969,1.3039,1.3091,1.3153,1.3211,1.3282,1.3299,1.3331,1.337,1.3432,1.3463,1.343,1.3519,1.3521,1.3495,1.3516,1.3502,1.3537,1.3516,1.3517,1.3518,0,1.2578,1.2651,1.2749,1.2845,1.2875,1.2924,1.3007,1.3066,1.3146,1.3181,1.3239,1.3283,1.3353,1.3356,1.3453,1.343,1.3469,1.3505,1.3508,1.3519,1.352,1.3527,1.355,1.3555,1.3528,1.3527,1.3526,0,1.256,1.2683,1.2757,1.2796,1.291,1.2944,1.2993,1.3072,1.3119,1.3192,1.3223,1.3303,1.3347,1.3407,1.3471,1.3467,1.3562,1.357,1.3593,1.3592,1.3611,1.3609,1.364,1.3636,1.3636,1.3636,1.3636,0,1.2594,1.2652,1.2751,1.2797,1.2863,1.2932,1.2996,1.3049,1.3119,1.3176,1.3229,1.3281,1.3362,1.3424,1.3475,1.3547,1.3567,1.3597,1.361,1.3592,1.3588,1.362,1.3619,1.3638,1.3637,1.3637,1.3637,0,1.2585,1.2654,1.2739,1.2839,1.2866,1.291,1.2996,1.3043,1.3097,1.3168,1.3189,1.3274,1.335,1.3419,1.3521,1.3554,1.3628,1.3644,1.36,1.3607,1.3626,1.3623,1.3678,1.3689,1.3678,1.3678,1.3678,0,1.2602,1.2648,1.2753,1.2794,1.2842,1.2909,1.2957,1.3027,1.3075,1.3169,1.3204,1.3283,1.3351,1.3469,1.354,1.3618,1.3636,1.365,1.3648,1.3629,1.3636,1.3632,1.3637,1.3649,1.3649,1.3648,1.3648,0,1.2624,1.2655,1.2723,1.2802,1.2858,1.2924,1.2992,1.3023,1.3105,1.3157,1.3235,1.3287,1.3389,1.3468,1.3553,1.3603,1.3639,1.3648,1.3658,1.364,1.3613,1.3628,1.3598,1.3647,1.3647,1.3647,1.3647,1.3647,1.2629,1.2671,1.2752,1.2825,1.2883,1.2945,1.2993,1.3053,1.3119,1.3208,1.3245,1.3323,1.3401,1.3519,1.3569,1.3632,1.364,1.3653,1.3657,1.3659,1.3655,1.3603,1.3648,1.3648,1.3648,1.3648,1.3648,0,1.2653,1.2707,1.2774,1.2866,1.2924,1.2952,1.3028,1.3074,1.3143,1.3212,1.3277,1.3366,1.3442,1.3518,1.3598,1.3633,1.3652,1.3652,1.365,1.3661,1.3644,1.3628,1.3636,1.3636,1.3636,1.3636,1.3636,1.3636,1.2672,1.2746,1.2787,1.2889,1.2944,1.3021,1.3062,1.3119,1.3174,1.3271,1.3334,1.3383,1.3456,1.3541,1.3611,1.3632,1.3659,1.3654,1.3679,1.3662,1.3662,1.3663,1.3648,1.3659,1.3659,1.3691,1.3691,1.3691]},{"header":{"parameterUnit":"m.s-1","parameterCategory":1,"la1":30.2991,"la2":30.254,"lo1":-89.0895,"lo2":-89.0444,"dy":0.0017,"dx":0.0017,"nx":28,"ny":28,"refTime":"2025-07-11T21:00:00:Z","depth":0,"parameterNumber":3,"parameterNumberName":"V-component_of_WINDS"},"data":[0,0,0,0,0,0,0,0,0,0,0,0,0,0,0,0,0,0,0,0,0,0,0,0,0,0,0,0,0,0,0,0,0,0,0,0,0,0,0,0,0,0,0,0,0,0,0,0,0,0,0,0,0,0,0,0,0,0,5.0188,5.0187,0,5.0151,5.015,5.015,5.0071,5.0069,5.0068,5.0066,5.003,5.0031,5.0032,0,0,0,0,0,0,0,0,0,0,0,0,0,5.0193,5.0193,5.0188,5.0187,5.0187,5.0151,5.015,5.015,5.0071,5.0069,5.0067,5.0065,5.003,5.0031,5.0032,0,0,0,0,0,0,0,0,0,0,0,0,0,5.0177,5.0193,5.0188,5.0143,5.0139,5.0151,5.015,5.015,5.0072,5.0069,5.0067,5.0064,5.003,5.0031,5.0032,5.0085,0,0,5.0034,5.0035,0,0,0,0,0,0,0,0,5.0178,5.0177,5.015,5.0146,5.0141,5.0113,5.0139,5.0128,5.0072,5.0097,5.0066,5.0063,5.006,5.0058,5.0057,5.0083,5.0082,5.0034,5.0035,5.0035,5.0035,0,0,0,0,0,0,0,5.0179,5.0178,5.0173,5.015,5.0145,5.0126,5.0121,5.0136,5.0093,5.0095,5.0089,5.0086,5.0057,5.0056,5.0055,5.0081,5.0034,5.0035,5.0035,5.0036,5.015,5.0152,0,0,0,0,0,0,5.0186,5.0179,5.0174,5.0172,5.0154,5.0128,5.0122,5.0125,5.0092,5.0085,5.0088,5.0082,5.0056,5.0054,5.0054,5.0113,5.0035,5.0036,5.0036,5.0147,5.015,5.0153,0,0,0,0,0,0,5.0187,5.0186,5.0176,5.0174,5.0171,5.013,5.0134,5.0125,5.0124,5.0087,5.0079,5.0094,5.0054,5.0053,5.0078,5.0111,5.0036,5.0037,5.0144,5.0148,5.0152,5.0234,0,0,0,0,0,0,5.0187,5.0187,5.0206,5.0175,5.0172,5.02,5.0136,5.0126,5.0125,5.0117,5.0091,5.0084,5.0052,5.0077,5.0078,5.0111,5.0038,5.0141,5.0146,5.015,5.0228,5.024,5.0251,0,0,0,0,0,5.0187,5.0232,5.0208,5.0208,5.0195,5.0202,5.02,5.0161,5.0128,5.0148,5.0124,5.0085,5.0108,5.008,5.0081,5.0115,5.0139,5.0145,5.015,5.0223,5.0238,5.025,0,0,0,0,0,0,5.0269,5.0227,5.02,5.0235,5.0223,5.0189,5.0212,5.0178,5.0176,5.0169,5.0121,5.0116,5.0147,5.0133,5.0104,5.0164,5.0117,5.0123,5.0172,5.0186,5.0197,5.0199,5.0038,0,0,0,0,0,5.0291,5.0299,5.0262,5.0297,5.0292,5.0253,5.0255,5.0226,5.0212,5.0206,5.0184,5.0173,5.0177,5.0181,5.0182,5.0226,5.0219,5.025,5.0261,5.027,5.0276,5.0298,5.0311,5.0172,5.0172,5.0172,0,0,5.0336,5.0314,5.0323,5.0313,5.03,5.031,5.025,5.0263,5.0271,5.0209,5.0231,5.0215,5.0198,5.0233,5.0247,5.0222,5.0313,5.0278,5.0285,5.0286,5.0305,5.0318,5.033,5.0176,5.0175,5.0174,0,0,5.0424,5.0409,5.0435,5.0424,5.0404,5.0378,5.0385,5.0356,5.0343,5.0364,5.0318,5.0327,5.0335,5.0325,5.0321,5.0406,5.037,5.0408,5.0467,5.0488,5.0499,5.0509,5.0539,5.055,5.0414,5.0415,5.0415,0,5.0483,5.0496,5.0454,5.047,5.0467,5.0411,5.0438,5.0429,5.0413,5.0412,5.0385,5.0394,5.0379,5.041,5.0431,5.043,5.0436,5.0411,5.0501,5.051,5.0518,5.0546,5.0558,5.0419,5.0419,5.0418,5.0418,0,5.057,5.058,5.0604,5.0588,5.0588,5.061,5.0572,5.0577,5.0548,5.0526,5.0548,5.0528,5.0525,5.0531,5.0503,5.0558,5.0543,5.051,5.0461,5.0537,5.0562,5.0573,5.0426,5.0424,5.0423,5.0422,0,0,5.0707,5.0667,5.0677,5.0669,5.0644,5.0651,5.0672,5.0668,5.0673,5.0664,5.0679,5.0688,5.0656,5.0652,5.0623,5.0642,5.071,5.0605,5.0604,5.0625,5.0769,5.0795,5.0808,5.0687,5.0689,5.069,5.077,0,5.0789,5.0819,5.0782,5.0821,5.083,5.0777,5.0794,5.0781,5.0761,5.0766,5.0743,5.075,5.0708,5.0705,5.0721,5.0698,5.0738,5.0692,5.0701,5.0702,5.0706,5.0821,5.0848,5.0924,5.078,5.0782,5.0783,0,5.0888,5.0882,5.0922,5.0895,5.0897,5.0913,5.0907,5.0912,5.0897,5.088,5.0876,5.0841,5.0859,5.0813,5.0837,5.0806,5.0808,5.0797,5.0799,5.0798,5.0747,5.0822,5.0948,5.0959,5.0798,5.0797,5.0796,0,5.0984,5.0986,5.101,5.1005,5.0974,5.0986,5.0974,5.0956,5.0956,5.0951,5.0951,5.0948,5.0947,5.0946,5.0911,5.0881,5.094,5.0891,5.0927,5.0928,5.0941,5.0941,5.1069,5.0944,5.0944,5.0944,5.0943,0,5.1078,5.1105,5.1052,5.1067,5.1095,5.1052,5.1082,5.1064,5.1049,5.1059,5.1014,5.1025,5.098,5.0986,5.096,5.0984,5.0984,5.0971,5.0964,5.0975,5.0976,5.0975,5.0968,5.0947,5.0946,5.0945,5.0945,0,5.1189,5.1156,5.1178,5.1147,5.1139,5.1162,5.1135,5.1147,5.1124,5.1138,5.1139,5.1103,5.1108,5.1074,5.1074,5.1056,5.1093,5.1077,5.1098,5.1092,5.1131,5.1127,5.1261,5.1276,5.1143,5.1144,5.1145,0,5.1252,5.1271,5.1241,5.1245,5.1234,5.1241,5.1241,5.12,5.1201,5.1185,5.12,5.1202,5.1201,5.1212,5.1186,5.1185,5.1168,5.1215,5.1168,5.1178,5.1168,5.1167,5.1169,5.1225,5.1227,5.1228,5.1229,0,5.1366,5.1348,5.1349,5.1344,5.1345,5.134,5.1331,5.1337,5.1293,5.1297,5.1302,5.1301,5.13,5.1302,5.1296,5.1284,5.125,5.1244,5.1253,5.1264,5.1275,5.1269,5.1124,5.1241,5.124,5.1239,5.1238,5.1238,5.1454,5.1468,5.1449,5.1452,5.1441,5.1435,5.1445,5.1423,5.1425,5.1421,5.1397,5.1406,5.139,5.1379,5.137,5.1377,5.1355,5.1367,5.137,5.1373,5.138,5.1275,5.1376,5.1376,5.1375,5.1375,5.1375,0,5.1565,5.155,5.1553,5.1543,5.1545,5.1512,5.1501,5.1505,5.1513,5.1501,5.1501,5.1507,5.1509,5.1483,5.1482,5.1492,5.1476,5.1493,5.1492,5.1489,5.14,5.1393,5.1506,5.1506,5.1506,5.1506,5.1506,5.1506,5.1623,5.1645,5.1625,5.1642,5.1627,5.1635,5.1632,5.1626,5.1616,5.1624,5.1625,5.1608,5.159,5.1588,5.1588,5.158,5.1582,5.1604,5.1591,5.1508,5.1496,5.1484,5.1476,5.1605,5.1605,5.168,5.168,5.1681]}]]